GEFSGL_con_cape1000_198.txt.gz
Probability
74 68 65 65 61 65 65 61 58 55 58 48 42 39 35 35 32 39 29 29 26 26 26 23 26 32 29 35 26 32 29 13 10 13 10 6 6 6 0 3 3 3 0
71 68 65 61 65 61 55 55 55 48 42 39 35 35 35 29 29 26 23 19 16 16 16 16 19 19 26 29 29 29 26 19 10 6 6 3 3 6 6 6 6 3 3
71 65 65 65 58 58 55 52 52 45 42 39 35 32 29 29 23 19 23 19 16 19 13 16 16 13 16 16 26 19 23 13 13 6 3 3 3 3 3 3 3 3 3
68 65 65 61 55 52 52 48 45 42 42 39 39 29 26 19 13 13 16 10 13 13 13 16 16 10 10 16 13 13 16 10 10 6 3 3 3 3 3 3 3 3 3
71 61 58 48 55 48 48 45 45 45 32 35 26 23 19 13 6 10 10 6 10 10 13 10 10 6 6 6 0 10 10 10 6 3 3 3 3 3 3 3 3 3 3
71 61 58 52 52 45 48 48 42 32 26 23 19 13 6 6 3 3 6 10 10 6 6 3 0 0 0 0 0 0 0 6 3 3 3 0 0 6 3 3 3 3 3
71 61 61 55 45 45 42 32 29 26 19 13 10 10 10 10 6 3 3 6 13 13 10 0 0 0 0 0 0 0 0 0 0 3 0 3 0 3 0 3 0 0 3
71 65 61 58 45 35 32 29 26 23 16 10 10 10 6 6 3 0 0 3 13 10 6 10 0 0 0 0 0 0 0 0 0 0 0 0 0 3 0 0 0 0 3
68 58 55 45 35 32 23 19 23 23 10 10 10 10 6 6 3 0 0 3 10 10 10 3 0 0 0 0 0 0 0 0 0 0 0 0 0 0 0 0 0 0 0
58 48 42 42 35 32 23 19 19 16 13 10 10 10 6 6 3 0 0 3 6 10 6 3 0 0 0 0 0 0 0 0 0 0 0 0 0 0 0 0 0 0 0
52 52 42 39 39 39 19 19 19 10 10 10 10 10 6 6 6 0 0 0 6 6 3 0 0 0 0 0 0 0 3 0 0 0 0 0 0 0 0 0 3 0 0
58 48 42 39 26 23 23 26 16 16 10 10 6 6 6 3 0 0 0 0 0 0 3 3 0 0 0 0 0 0 0 0 0 0 0 0 0 0 0 0 0 0 0
52 45 39 32 29 26 23 13 13 19 10 10 6 6 6 6 0 0 0 0 0 0 0 0 0 0 0 0 0 0 0 0 0 0 0 0 0 0 3 0 0 0 0
42 39 39 29 29 26 23 13 13 10 13 6 6 6 6 6 3 0 0 0 0 0 0 0 0 0 0 0 0 0 0 0 0 0 0 0 0 3 3 0 0 0 0
42 35 32 29 19 23 10 10 10 6 6 3 6 6 6 6 0 0 0 3 3 0 0 3 3 3 0 0 0 0 0 0 0 0 0 0 0 0 0 0 0 0 0
35 29 23 19 13 6 10 6 3 0 0 0 0 0 0 0 0 0 0 0 0 0 0 0 0 0 3 0 3 3 3 3 3 3 0 0 0 0 0 0 0 0 0
42 32 23 16 16 6 6 10 10 3 0 0 0 0 0 0 0 0 0 0 0 0 0 0 0 0 3 3 3 3 3 3 3 3 0 0 0 0 0 0 0 0 0
42 26 19 19 13 13 10 10 10 10 3 3 0 0 0 0 0 0 0 0 0 0 0 0 0 3 3 3 3 3 3 3 3 3 3 3 3 3 0 0 0 0 0
29 23 23 23 13 13 10 10 10 6 3 3 3 0 0 0 0 0 0 0 0 0 0 0 0 3 0 3 3 3 3 3 3 3 3 3 3 3 3 3 3 0 0
39 6 13 16 6 3 6 0 0 0 0 0 0 3 0 0 0 0 0 0 0 0 3 3 3 3 3 0 0 0 0 0 0 0 3 3 3 3 3 3 0 0 0
19 10 6 6 3 3 3 0 0 0 0 0 0 0 0 0 0 0 0 0 0 0 0 3 3 3 3 3 3 0 0 0 0 0 0 0 3 3 3 0 3 0 0
13 10 6 6 3 3 3 3 0 0 0 0 0 0 0 0 0 0 0 0 0 0 0 0 0 0 0 0 3 3 0 0 0 0 0 0 0 3 0 0 0 0 0
10 6 3 3 3 3 3 3 0 0 0 0 0 0 0 0 0 0 0 0 0 0 0 0 0 0 0 0 0 0 0 0 0 3 0 0 0 0 0 0 0 0 0
10 3 3 3 0 0 0 0 0 0 0 0 0 0 0 0 0 0 0 0 0 0 0 0 0 0 0 0 0 0 0 0 0 3 0 0 0 0 0 0 0 0 0
6 6 6 3 0 0 0 3 3 0 0 0 0 0 0 0 0 0 0 0 0 0 0 0 0 0 0 0 0 0 0 0 0 0 0 0 0 0 0 0 0 0 0
6 6 6 3 0 0 0 3 3 3 3 0 0 0 0 0 0 0 0 0 0 0 0 0 0 0 0 0 0 0 0 0 0 0 0 0 0 0 0 0 0 0 0

GEFSGL_con_cape1000_204.txt.gz
Probability
42 45 39 35 35 32 32 29 26 26 26 23 23 10 10 13 16 10 10 6 3 3 3 3 3 0 0 0 0 0 0 0 0 0 0 0 0 0 0 0 0 0 0
48 45 42 39 35 29 26 26 26 19 13 13 13 10 10 10 13 10 10 6 3 3 3 0 0 0 0 0 0 0 0 0 0 0 0 0 0 0 0 0 0 0 0
45 45 39 32 26 26 26 26 26 10 13 13 10 6 3 6 6 6 6 6 3 3 3 0 0 0 0 0 0 0 0 0 0 0 0 0 0 0 0 0 0 0 0
48 39 35 29 26 26 23 26 23 13 10 6 3 6 3 3 3 3 3 3 3 3 0 0 0 0 0 0 0 0 0 0 0 0 0 0 0 0 0 0 0 0 0
48 39 32 29 23 23 23 23 16 16 10 3 6 6 6 3 3 3 3 3 3 3 0 0 0 0 0 0 0 0 0 0 0 0 0 0 0 0 0 0 0 0 0
42 42 32 29 23 19 10 6 6 6 6 6 6 6 6 6 6 3 3 3 3 3 0 0 0 0 0 0 0 0 0 0 0 0 0 0 0 0 0 0 0 0 0
42 42 32 26 19 13 6 3 6 6 6 3 3 3 3 3 6 3 3 3 3 3 3 0 0 0 0 0 0 0 0 0 0 0 0 0 0 0 0 0 0 0 0
45 39 29 23 16 6 6 6 6 6 3 3 3 3 3 3 3 3 3 0 3 3 0 0 0 0 0 0 0 0 0 0 0 0 0 0 0 0 0 0 0 0 0
42 35 23 19 10 6 6 6 6 3 3 3 3 3 3 3 3 3 0 0 0 0 0 0 0 0 0 0 0 0 0 0 0 0 0 0 0 0 0 0 0 0 0
35 29 29 16 10 10 6 6 6 3 3 3 3 3 3 3 3 3 0 0 0 0 0 0 0 0 0 0 0 0 0 0 0 0 0 0 0 0 0 0 0 0 0
29 26 16 10 3 10 6 6 3 3 3 3 3 3 3 3 3 0 0 0 0 0 0 0 0 0 0 0 0 0 0 0 0 0 0 0 0 0 0 0 0 0 0
26 19 19 10 6 6 6 6 0 3 3 3 3 3 3 0 0 0 0 0 0 0 0 0 0 0 0 0 0 0 0 0 0 0 0 0 0 0 0 0 0 0 0
23 19 19 13 6 3 6 6 3 0 3 3 3 0 0 0 0 0 0 0 0 0 0 0 0 0 0 0 0 0 0 0 0 0 0 0 0 0 0 0 0 0 0
19 16 16 10 10 3 6 3 3 3 3 3 3 0 0 0 0 0 0 0 0 0 0 0 0 0 0 0 0 0 0 0 0 0 0 0 0 0 0 0 0 0 0
23 19 19 10 6 6 3 3 3 3 0 0 0 0 0 0 0 0 0 0 0 0 0 0 0 0 0 0 0 0 0 0 0 0 0 0 0 0 0 0 0 0 0
19 13 13 10 6 6 6 3 3 3 0 0 0 0 0 0 0 0 0 0 0 0 0 0 0 0 0 0 0 0 0 0 0 0 0 0 0 0 0 0 0 0 0
23 16 10 6 6 6 6 6 3 3 0 0 0 0 0 0 0 0 0 0 0 0 0 0 0 0 0 0 0 0 0 0 0 0 0 0 0 0 0 0 0 0 0
23 19 10 6 6 6 6 6 6 3 0 0 0 0 0 0 0 0 0 0 0 0 0 0 0 0 0 0 0 0 0 0 0 0 0 0 0 0 0 0 0 0 0
26 16 10 6 6 6 6 6 3 3 0 0 0 0 0 0 0 0 0 0 0 0 0 0 0 0 0 0 0 0 0 0 0 0 0 0 0 0 0 0 0 0 0
19 16 13 10 6 6 3 0 0 0 0 0 0 0 0 0 0 0 0 0 0 0 0 0 0 0 0 0 0 0 0 0 0 0 0 0 0 0 0 0 0 0 0
13 13 10 3 3 3 3 0 0 0 0 0 0 0 0 0 0 0 0 0 0 0 0 0 0 0 0 0 0 0 0 0 0 0 0 0 0 0 0 0 0 0 0
10 6 6 6 3 3 3 3 0 0 0 0 0 0 0 0 0 0 0 0 0 0 0 0 0 0 0 0 0 0 0 0 0 0 0 0 0 0 0 0 0 0 0
6 3 3 3 3 3 3 3 0 0 0 0 0 0 0 0 0 0 0 0 0 0 0 0 0 0 0 0 0 0 0 0 0 0 0 0 0 0 0 0 0 0 0
6 6 3 3 3 0 0 0 0 0 0 0 0 0 0 0 0 0 0 0 0 0 0 0 0 0 0 0 0 0 0 0 0 0 0 0 0 0 0 0 0 0 0
6 6 6 3 3 0 0 0 0 0 0 0 0 0 0 0 0 0 0 0 0 0 0 0 0 0 0 0 0 0 0 0 0 0 0 0 0 0 0 0 0 0 0
6 6 6 3 3 0 0 0 0 0 0 0 0 0 0 0 0 0 0 0 0 0 0 0 0 0 0 0 0 0 0 0 0 0 0 0 0 0 0 0 0 0 0

GEFSGL_con_cape1000_210.txt.gz
Probability
23 16 23 19 19 19 23 23 23 19 16 13 13 13 13 13 10 3 3 3 3 3 3 3 3 0 0 0 0 0 0 0 0 0 0 0 0 0 0 0 0 0 0
23 19 26 26 26 23 23 26 19 13 10 10 10 6 6 3 3 6 6 6 6 6 3 3 0 0 0 0 0 0 0 0 0 0 0 0 0 0 0 0 0 0 0
32 26 29 26 23 19 19 23 16 13 6 6 6 6 3 3 3 3 3 6 6 3 3 3 0 0 0 0 0 0 0 0 0 0 0 0 0 0 0 0 0 0 0
32 29 26 26 19 16 19 19 13 10 6 3 3 3 3 3 3 3 3 3 3 3 3 3 0 0 0 0 0 0 0 0 0 0 0 0 0 0 0 0 0 0 0
32 29 23 19 19 16 19 19 6 3 3 3 3 3 3 3 3 6 6 6 6 6 3 3 0 0 0 0 0 0 0 0 0 0 0 0 0 0 0 0 0 0 0
32 29 19 19 16 19 16 13 0 3 0 0 0 3 3 3 3 3 3 3 3 3 3 6 3 0 0 0 0 0 0 0 0 0 0 0 0 0 0 0 0 0 0
26 23 23 19 16 16 16 6 0 3 3 3 3 3 3 3 3 3 3 3 3 3 3 3 3 0 0 3 0 0 0 0 0 0 0 0 0 0 0 0 0 0 0
23 23 16 16 16 13 13 3 3 3 3 3 3 3 3 3 3 3 3 3 3 3 3 3 3 3 0 0 3 3 0 0 0 0 0 0 0 0 0 0 0 0 0
23 19 13 13 13 10 3 3 0 0 0 3 3 3 3 3 3 3 3 3 3 3 3 3 3 3 0 0 0 0 0 0 0 0 0 0 0 0 0 0 0 0 0
29 16 13 13 10 3 3 3 0 0 0 0 0 0 0 3 3 0 0 3 0 0 0 0 0 0 0 0 0 0 0 0 0 0 0 0 0 0 0 0 0 0 0
13 10 6 6 0 3 3 3 3 0 0 0 0 0 0 0 0 0 0 0 0 0 0 0 0 0 0 0 0 0 0 0 0 0 0 0 0 0 0 0 0 0 0
16 16 10 3 0 0 0 3 0 0 0 0 0 0 0 0 0 0 0 0 0 0 0 0 0 0 0 0 0 0 0 0 0 0 0 0 0 0 0 0 0 0 0
19 16 3 0 0 0 0 0 0 0 0 0 0 0 0 0 0 0 0 0 0 0 0 0 0 0 0 0 0 0 0 0 0 0 0 0 0 0 0 0 0 0 0
16 16 6 0 0 0 3 0 0 0 0 0 0 0 0 0 0 0 0 0 0 0 0 0 0 0 0 0 0 0 0 0 0 0 0 0 0 0 0 0 0 0 0
16 16 16 13 10 3 0 0 3 3 3 3 3 0 0 0 0 0 0 0 0 0 0 0 0 0 0 0 0 0 0 0 0 0 0 0 0 0 0 0 0 0 0
19 16 13 13 3 3 0 0 0 0 0 0 0 0 0 0 0 0 0 0 0 0 0 0 0 0 0 0 0 0 0 0 0 0 0 0 0 0 0 0 0 0 0
23 16 16 13 6 6 6 3 3 0 0 0 0 0 0 0 0 0 0 0 0 0 0 0 0 0 0 0 0 0 0 0 0 0 0 0 0 0 0 0 0 0 0
13 13 13 13 10 10 10 6 6 6 0 0 0 0 0 0 0 0 0 0 0 0 0 0 0 0 0 0 0 0 0 0 0 0 0 0 0 0 0 0 0 0 0
10 13 13 13 10 10 6 6 6 6 3 3 0 0 0 0 0 0 0 0 0 0 0 0 0 0 0 0 0 0 0 0 0 0 0 0 0 0 0 0 0 0 0
10 6 10 16 10 6 6 6 6 3 3 3 3 0 0 0 0 0 0 0 0 0 0 0 0 0 0 0 0 0 0 0 0 0 0 0 0 0 0 0 0 0 0
6 6 0 10 13 6 3 3 3 3 3 3 3 0 0 0 0 0 0 0 0 0 0 0 0 0 0 0 0 0 0 0 0 0 0 0 0 0 0 0 0 0 0
6 6 6 6 3 3 3 3 3 3 3 3 0 0 0 0 0 0 0 0 0 0 0 0 0 0 0 0 0 0 0 0 0 0 0 0 0 0 0 0 0 0 0
10 6 10 6 3 0 0 0 0 0 0 0 0 0 0 0 0 0 0 0 0 0 0 0 0 0 0 0 0 0 0 0 0 0 0 0 0 0 0 0 0 0 0
6 3 3 3 3 0 0 0 0 0 0 0 0 0 0 0 0 0 0 0 0 0 0 0 0 0 0 0 0 0 0 0 0 0 0 0 0 0 0 0 0 0 0
3 3 3 3 6 3 0 0 0 0 0 0 0 0 0 0 0 0 0 0 0 0 0 0 0 0 0 0 0 0 0 0 0 0 0 0 0 0 0 0 0 0 0
3 3 3 6 6 6 3 0 0 0 0 0 0 0 0 0 0 0 0 0 0 0 0 0 0 0 0 0 0 0 0 0 0 0 0 0 0 0 0 0 0 0 0

GEFSGL_con_cape1000_216.txt.gz
Probability
74 71 74 68 65 65 65 58 61 61 55 48 45 35 32 26 26 26 23 19 26 26 26 26 26 19 26 23 26 26 16 19 19 10 6 0 3 0 3 6 6 10 3
77 81 77 74 68 65 61 61 61 58 52 52 35 29 26 26 26 23 23 19 19 19 16 16 16 13 23 23 23 19 19 13 10 6 6 10 6 0 6 10 3 3 3
81 77 74 68 65 68 61 58 52 52 39 35 32 26 19 19 19 23 19 19 16 16 10 16 16 19 19 19 19 16 16 10 13 6 6 10 6 6 10 13 6 13 0
81 77 71 68 65 65 61 55 48 42 39 32 23 16 16 13 10 10 13 13 6 6 10 10 13 13 13 13 13 16 16 19 13 10 6 10 6 3 3 3 6 10 3
77 74 71 68 58 58 55 55 45 42 32 29 16 13 13 10 10 6 6 6 6 6 6 10 10 3 3 6 10 13 13 13 13 3 3 3 3 6 3 3 0 3 6
81 77 71 65 58 61 52 48 45 32 26 23 13 10 10 10 3 3 3 6 6 6 6 6 3 3 3 3 3 3 3 6 6 6 3 3 3 3 3 3 0 0 0
77 68 68 58 58 58 39 35 32 26 13 13 10 6 6 6 0 0 0 6 10 10 10 10 3 3 3 6 3 0 0 0 0 6 6 6 6 3 3 3 3 0 0
74 71 65 55 55 42 42 39 26 23 19 13 10 6 10 6 3 0 0 6 10 10 10 3 3 3 0 0 0 6 3 3 3 3 3 6 6 6 6 3 3 3 0
74 68 61 55 52 45 42 39 23 19 19 16 10 10 6 6 3 0 0 10 6 3 3 0 0 0 0 0 0 0 0 3 0 0 0 0 0 0 0 3 3 3 3
74 61 65 65 52 48 42 39 29 23 19 16 13 6 6 6 3 0 0 0 3 0 0 0 0 0 0 0 0 0 0 0 0 3 0 0 0 0 0 0 3 3 3
71 65 68 61 48 45 39 32 32 23 19 13 13 6 6 6 3 0 0 0 3 3 0 0 0 0 0 0 0 0 0 0 0 0 0 0 0 0 0 0 3 3 3
71 68 58 55 39 29 35 26 26 23 13 16 16 10 10 3 3 3 0 0 0 3 3 0 0 0 0 0 0 0 0 0 0 0 0 0 0 0 0 0 3 3 3
65 65 52 45 39 32 32 26 23 19 16 16 13 10 3 6 3 3 0 0 0 0 3 0 0 0 0 0 0 0 0 0 0 0 0 0 0 0 0 0 0 0 0
58 55 45 42 35 35 32 26 16 13 16 16 16 13 10 10 3 3 3 3 0 0 3 0 0 0 0 0 0 0 3 3 0 3 0 0 0 0 0 0 0 0 0
55 42 45 35 29 26 26 26 16 16 13 13 16 13 16 13 6 0 3 3 3 3 0 3 3 3 3 3 3 3 0 0 0 0 0 0 0 0 0 0 0 0 0
48 45 35 29 26 26 19 13 3 3 3 3 3 3 6 0 0 0 0 0 0 0 0 0 0 3 0 0 0 0 0 0 0 0 0 0 0 0 0 0 0 0 0
42 32 35 26 26 19 19 13 13 6 0 0 0 0 0 0 0 0 0 0 0 0 0 0 0 0 0 0 0 0 0 0 0 0 0 0 0 0 0 0 0 0 0
32 19 26 29 26 16 16 16 16 13 10 6 0 0 0 0 0 0 0 0 0 0 0 0 0 0 0 3 0 0 0 0 0 0 0 0 0 0 0 0 0 0 0
26 26 23 19 23 13 13 13 16 16 16 13 10 3 0 0 0 0 0 0 0 0 0 0 0 0 0 0 0 0 0 0 0 0 0 0 0 0 0 0 0 0 0
23 16 19 19 19 23 16 13 16 16 13 10 6 6 3 0 0 0 0 3 0 0 0 0 0 0 0 0 0 0 0 0 0 0 0 0 0 0 0 0 0 0 0
19 16 6 16 23 23 23 23 23 19 23 16 10 6 3 6 6 6 3 3 3 0 0 0 0 0 0 0 0 0 0 0 0 0 0 0 0 0 0 0 0 0 0
16 16 13 13 19 19 23 23 13 16 19 19 16 3 3 3 6 6 6 3 0 0 0 0 0 0 0 0 0 0 0 0 0 0 0 0 0 0 0 0 0 0 0
16 16 13 13 13 6 10 16 16 10 10 10 16 3 3 6 6 3 3 0 0 0 0 0 0 0 0 0 0 0 0 0 0 0 0 0 0 0 0 0 0 0 0
16 16 13 13 13 13 13 10 10 6 3 3 3 0 0 3 3 3 0 0 3 0 0 0 0 0 0 0 0 0 0 0 0 0 0 0 0 0 0 0 0 0 0
13 16 13 16 16 16 13 10 6 3 3 0 3 0 0 0 0 0 0 0 0 3 3 3 3 0 0 0 0 0 0 0 0 0 0 0 0 0 0 0 0 0 0
16 16 16 19 19 16 13 10 3 3 3 0 0 0 0 0 0 0 0 0 0 0 0 0 0 0 0 0 0 0 0 0 0 0 0 0 0 0 0 0 0 0 0

GEFSGL_con_cape1000_222.txt.gz
Probability
97 97 94 90 87 84 84 77 74 65 61 55 55 55 52 48 35 26 26 23 26 23 23 19 29 32 32 32 35 29 29 19 10 13 6 10 13 10 3 6 6 0 0
94 94 90 90 87 84 81 77 71 65 65 58 55 55 48 35 26 19 19 19 23 26 26 26 23 19 26 26 29 29 26 29 10 10 6 13 13 10 10 3 0 0 0
94 90 87 87 84 84 77 71 71 68 68 61 55 45 29 26 26 19 19 19 19 16 19 19 19 13 19 23 29 26 29 16 10 10 10 10 13 3 3 3 0 0 0
90 90 87 87 84 84 74 68 68 68 65 65 39 35 23 23 16 13 10 10 13 13 16 13 13 16 13 13 13 16 19 16 13 13 10 6 6 6 3 3 0 0 0
90 90 87 87 84 81 68 68 68 65 55 52 48 39 16 13 6 10 6 6 10 10 13 13 13 13 6 6 10 10 6 6 3 3 3 3 6 3 3 3 3 3 0
84 87 84 84 81 74 68 65 61 55 48 39 35 26 16 6 3 3 6 6 10 10 13 13 13 6 0 0 0 0 3 6 3 3 3 3 0 0 0 3 3 3 3
90 87 84 84 77 74 61 61 55 55 45 42 35 26 16 6 3 0 3 6 6 6 10 10 6 0 0 0 0 0 0 0 0 0 3 3 3 0 3 3 0 3 3
87 87 81 84 71 61 65 55 52 48 42 42 35 29 19 6 6 0 0 6 6 6 10 10 6 6 0 0 0 0 3 0 0 0 3 3 3 3 3 0 0 0 0
87 87 84 77 68 61 61 58 48 42 45 39 32 32 26 6 6 0 0 6 6 6 6 6 6 6 0 0 0 3 3 0 0 0 0 0 0 0 0 0 0 0 0
87 84 84 81 68 61 58 55 45 42 35 35 32 29 26 13 6 0 0 6 6 6 6 6 3 0 0 0 0 3 3 0 0 0 0 0 0 0 0 0 0 0 0
87 81 77 77 71 61 52 52 48 39 35 35 35 29 26 23 6 0 0 6 6 6 10 6 3 0 0 0 0 0 0 0 0 0 0 0 0 0 0 0 0 0 0
87 81 77 81 65 55 55 55 52 42 35 35 35 32 26 19 6 3 0 0 6 6 6 3 0 0 0 0 0 0 0 0 0 3 3 3 0 0 0 0 0 0 0
84 87 74 74 65 58 55 52 45 45 32 32 29 29 19 23 10 3 0 0 0 3 6 3 0 0 0 0 0 0 0 0 3 3 3 3 3 3 3 0 0 0 0
81 74 61 65 61 58 55 42 35 35 29 29 23 19 16 16 13 6 3 0 0 0 0 0 0 0 0 0 0 0 0 3 3 3 0 3 3 3 3 3 3 3 3
77 65 61 61 58 61 45 42 32 32 26 29 26 23 23 19 13 6 3 3 3 3 3 3 3 6 3 3 3 3 3 3 0 0 3 3 3 3 3 3 3 0 0
68 61 48 45 58 45 42 32 19 19 13 10 10 6 13 10 0 0 0 0 0 0 0 3 3 3 3 3 3 3 0 0 0 0 0 3 0 0 0 0 0 0 0
65 58 45 39 35 32 26 26 23 13 3 3 3 0 0 0 0 0 0 0 0 0 0 0 0 6 6 6 6 3 0 0 0 0 3 3 3 0 0 0 0 0 0
58 35 35 39 29 29 23 19 19 26 16 16 3 0 0 0 0 0 0 0 0 0 0 0 0 3 6 6 6 6 3 3 0 0 3 3 0 0 0 0 0 0 0
55 45 39 35 29 29 23 16 16 16 19 19 10 3 0 0 0 0 0 0 0 0 0 0 0 3 3 6 6 6 6 3 3 0 0 0 0 0 0 0 0 0 0
52 29 26 29 26 26 23 19 13 13 19 16 13 10 0 0 0 0 0 0 0 0 0 3 3 3 3 6 6 3 6 3 3 0 0 0 0 0 0 0 0 0 0
39 29 16 23 26 26 23 19 16 16 10 13 10 6 0 3 3 3 0 0 0 0 6 3 6 6 6 3 3 3 0 0 3 0 0 0 0 0 0 0 0 0 0
32 29 26 29 29 29 32 23 16 10 13 13 13 3 0 0 13 10 6 3 6 6 6 6 3 3 3 3 3 3 0 0 0 0 0 0 0 0 0 0 0 0 0
16 19 26 29 26 16 19 19 23 16 13 16 16 13 3 10 10 16 10 6 6 6 6 6 3 3 3 3 3 0 0 0 0 0 0 0 0 0 0 0 0 0 0
10 16 13 16 19 16 16 19 16 6 6 6 10 6 3 6 10 13 16 13 6 3 3 3 3 3 3 3 0 0 0 0 0 0 3 0 0 0 0 0 0 0 0
10 19 19 13 16 16 16 16 16 13 6 6 3 3 6 3 3 10 10 6 6 3 3 3 3 3 3 0 0 0 0 0 0 0 0 0 0 0 0 0 0 0 0
10 13 13 16 19 13 16 16 16 16 13 13 10 6 13 3 0 3 10 6 6 6 3 3 3 0 0 0 0 0 0 0 0 0 0 0 0 0 0 0 0 0 0

GEFSGL_con_cape1000_228.txt.gz
Probability
74 71 68 65 58 52 39 35 29 26 26 23 19 13 13 10 10 10 13 6 6 6 6 6 3 3 3 0 0 3 3 3 3 3 3 0 0 0 0 0 0 0 0
74 71 68 61 58 42 39 35 23 23 19 23 16 10 10 6 6 3 3 6 6 3 3 3 3 0 0 0 0 0 3 3 3 3 3 0 0 0 0 0 0 0 0
71 71 65 58 52 39 39 35 26 23 13 16 10 13 10 10 6 3 3 6 6 3 3 3 3 0 0 0 0 0 0 0 0 0 3 3 0 0 0 0 0 0 0
68 68 61 55 52 42 39 32 29 19 16 13 10 10 6 6 6 6 3 6 6 3 3 3 0 0 0 0 0 0 0 0 0 0 0 0 0 0 0 0 0 0 0
68 71 61 52 52 45 42 29 23 19 23 19 10 10 10 6 6 6 6 6 6 6 3 0 0 0 0 0 0 0 0 0 0 0 0 0 0 0 0 0 0 0 0
77 71 65 55 55 48 39 29 26 26 19 16 10 10 6 6 6 6 6 6 6 3 3 0 0 0 3 0 0 0 0 0 0 0 0 0 0 0 0 0 0 0 0
74 74 68 52 45 42 42 32 26 26 16 13 10 10 6 6 6 6 0 3 3 3 3 0 0 0 3 0 0 0 0 0 0 0 0 0 0 0 0 0 0 0 0
74 71 65 48 45 39 39 32 26 26 26 16 10 6 3 3 3 3 0 0 0 3 3 3 0 0 0 0 0 0 0 0 0 0 0 0 0 0 0 0 0 0 0
71 71 52 48 42 39 39 29 29 26 23 19 16 6 6 3 3 0 0 0 0 0 3 3 3 0 0 0 0 0 0 0 0 0 0 0 0 0 0 0 0 0 0
61 61 52 42 39 35 35 26 23 23 23 19 19 10 6 6 3 0 0 0 0 0 0 3 0 0 0 0 0 0 0 0 0 0 0 0 0 0 0 0 0 0 0
52 58 52 45 35 29 29 19 19 23 16 19 19 13 10 6 3 0 0 0 0 0 0 0 3 0 0 0 0 0 0 0 0 0 0 0 0 0 0 0 0 0 0
55 58 55 45 35 32 26 26 26 19 16 16 19 16 13 10 3 3 0 0 0 0 3 3 0 0 0 0 0 0 0 0 0 0 0 0 0 0 0 0 0 0 0
55 58 52 39 32 29 32 23 19 19 16 16 13 16 10 10 3 0 0 0 0 0 0 0 0 0 0 0 0 0 0 0 0 0 0 0 0 0 0 0 0 0 0
45 45 42 32 23 26 26 26 16 16 16 16 19 16 10 10 10 6 3 0 0 0 0 0 0 0 0 0 0 0 0 0 0 0 0 0 0 0 0 0 0 0 0
32 32 35 32 26 23 26 23 19 13 13 16 13 13 16 10 10 3 3 0 0 0 0 0 0 0 0 0 0 0 0 0 0 0 0 0 0 0 0 0 0 0 0
32 32 35 26 23 23 19 23 6 6 6 6 3 3 13 6 6 0 0 0 0 0 0 0 0 0 0 0 0 0 0 0 0 0 0 0 0 0 0 0 0 0 0
29 23 26 23 19 16 13 10 10 3 3 0 3 0 0 0 0 0 0 0 0 0 0 0 0 0 0 0 0 0 0 0 0 0 0 0 0 0 0 0 0 0 0
23 23 29 19 19 13 10 10 10 6 6 3 0 0 0 0 0 0 0 0 0 0 0 0 0 0 0 0 0 0 0 0 0 0 0 0 0 0 0 0 0 0 0
23 26 19 23 23 13 10 10 6 6 6 6 0 0 0 0 0 0 0 0 0 0 0 0 0 0 0 0 0 0 0 0 0 0 0 0 0 0 0 0 0 0 0
16 16 16 19 19 13 10 6 6 6 6 6 3 0 0 0 0 0 0 0 0 0 0 0 0 0 0 0 0 0 0 0 0 0 0 0 0 0 0 0 0 0 0
16 16 16 16 13 13 13 10 6 6 6 6 6 0 0 0 0 0 0 0 0 0 0 0 0 0 0 0 0 0 0 0 0 0 0 0 0 0 0 0 0 0 0
13 13 13 16 13 13 16 13 10 6 6 6 6 0 0 0 0 0 0 0 0 0 0 0 0 0 0 0 0 0 0 0 0 0 0 0 0 0 0 0 0 0 0
13 13 13 13 10 10 10 13 13 10 6 6 6 3 0 0 0 0 0 0 0 0 0 0 0 0 0 0 0 0 3 3 0 0 0 0 0 0 0 0 0 0 0
10 10 13 10 10 10 10 13 13 13 10 6 3 3 3 0 0 0 0 0 0 0 0 0 0 0 0 3 3 3 3 3 0 0 0 0 0 0 0 0 0 0 0
10 13 13 10 10 10 10 10 13 13 10 3 3 3 3 3 0 0 0 0 0 0 3 3 3 3 3 3 3 0 0 0 0 0 0 0 0 0 0 0 0 0 0
10 10 10 10 10 10 10 6 6 6 10 10 0 0 0 0 0 0 0 0 0 0 3 3 3 3 3 3 0 0 0 0 0 0 0 0 0 0 0 0 0 0 0

GEFSGL_con_cape1000_234.txt.gz
Probability
32 29 39 35 42 32 32 35 32 26 16 16 6 10 6 6 6 6 6 6 3 3 3 3 3 3 3 3 3 0 0 0 0 0 0 0 0 0 0 3 3 3 0
32 39 45 35 35 35 32 32 29 23 16 10 6 6 6 6 6 6 3 3 3 3 3 3 3 3 3 3 0 0 0 0 0 0 0 0 0 0 0 0 3 0 0
39 42 39 32 32 35 32 32 16 16 16 13 10 10 6 3 3 3 3 3 3 3 3 3 3 3 3 3 3 0 0 0 0 0 0 0 0 0 0 0 0 3 0
39 48 45 42 42 39 39 26 13 13 10 10 6 6 6 3 3 3 3 3 3 3 3 3 3 3 3 3 3 3 3 0 0 0 0 0 0 0 0 0 0 0 0
52 45 39 48 39 35 35 29 23 13 16 6 6 6 6 6 3 3 3 3 3 3 3 6 6 3 3 3 3 3 3 0 0 0 0 0 0 0 0 0 0 0 0
52 48 48 42 42 32 35 29 19 19 19 13 6 6 6 6 3 3 3 6 6 6 6 6 6 3 3 0 0 0 0 0 0 0 0 0 0 0 0 0 0 0 0
52 48 42 42 42 35 32 23 26 23 16 16 16 13 6 6 3 3 3 3 6 6 3 3 3 3 0 0 0 0 0 0 0 0 0 0 0 0 0 0 0 0 0
48 42 42 39 35 32 23 26 23 19 19 13 16 10 13 13 3 3 0 0 3 6 6 6 6 3 0 0 0 0 0 0 0 0 0 0 0 0 0 0 0 0 0
42 42 35 39 35 32 29 23 19 16 19 19 19 10 6 6 0 0 0 0 0 3 3 3 3 3 0 0 0 0 0 0 0 0 0 0 0 0 0 0 0 0 0
45 39 35 32 35 35 32 26 19 19 16 16 16 13 10 10 3 0 0 0 0 3 3 3 0 0 0 0 0 0 0 0 0 0 0 0 0 0 0 0 0 0 0
35 39 35 32 35 29 23 23 16 16 16 16 10 13 13 10 13 0 0 0 0 3 3 3 3 0 0 0 0 0 0 0 0 0 0 0 0 0 0 0 0 0 0
29 29 35 29 29 26 23 23 13 16 16 16 13 13 16 13 10 6 0 0 0 0 3 3 3 0 0 0 0 0 0 0 0 0 0 0 0 0 0 0 0 0 0
26 26 26 29 29 26 26 23 19 16 13 13 13 10 10 13 13 0 0 0 0 0 0 0 0 0 0 0 0 0 0 0 0 0 0 0 0 0 0 0 0 0 0
29 26 23 26 29 29 23 23 19 16 16 16 13 10 10 10 10 13 3 3 0 0 0 0 0 0 0 0 0 0 0 0 0 0 0 0 0 0 0 0 0 0 0
16 19 19 23 29 26 19 16 16 19 16 13 16 13 13 10 10 0 0 6 3 0 0 0 0 0 0 0 0 0 0 0 0 0 0 0 0 0 0 0 0 0 0
13 13 19 19 23 26 26 13 3 3 3 3 3 3 3 3 3 0 0 0 0 0 0 0 0 3 0 0 0 0 0 0 0 0 0 0 0 0 0 0 0 0 0
13 10 10 13 16 19 19 19 16 0 0 0 0 0 3 3 0 0 0 0 0 0 0 0 0 0 0 0 0 0 0 0 0 0 0 0 0 0 0 0 0 0 0
3 6 10 10 13 16 23 23 19 16 6 3 0 0 0 0 0 0 0 0 0 0 0 0 0 0 0 0 0 0 0 0 0 0 0 0 0 0 0 0 0 0 0
3 0 3 6 13 16 19 19 23 16 10 6 6 3 0 0 0 0 0 0 0 0 0 0 0 0 0 0 0 0 0 0 0 0 0 0 0 0 0 0 0 0 0
0 0 0 6 6 13 16 16 13 13 13 10 6 6 3 3 3 0 0 0 0 0 0 0 0 0 0 0 0 0 0 0 0 0 0 0 0 0 0 0 0 0 0
0 0 0 3 6 10 13 13 13 13 10 10 6 6 6 3 3 3 3 0 0 0 0 0 0 0 0 0 0 0 0 0 0 0 0 0 0 0 0 0 0 0 0
0 0 0 3 3 6 10 13 13 13 10 6 6 6 6 6 6 3 3 3 0 0 0 0 0 0 0 0 0 0 0 0 0 0 0 0 0 0 3 3 3 0 0
0 0 0 0 3 6 6 10 13 13 10 6 6 6 6 6 6 6 6 3 3 0 0 0 0 0 0 0 0 0 0 0 0 0 3 3 3 3 3 0 0 3 0
0 0 0 0 3 6 10 10 13 10 10 10 10 10 6 6 6 6 6 6 0 0 0 0 0 0 0 0 0 0 0 0 0 0 3 3 3 3 0 0 0 0 0
0 0 0 0 3 3 10 10 10 13 10 10 6 6 6 6 6 6 6 3 3 0 0 0 0 0 0 0 0 0 0 0 0 0 3 3 3 0 0 0 0 0 0
0 0 0 0 0 6 6 6 13 13 10 10 10 6 6 3 3 3 0 0 0 0 0 0 0 0 0 0 0 0 0 0 0 0 0 0 0 0 0 0 0 0 0

GEFSGL_con_cape1000_240.txt.gz
Probability
94 94 94 94 87 84 84 74 77 74 74 71 71 68 55 48 52 48 39 32 29 32 29 23 23 26 29 29 29 29 26 26 23 13 6 3 3 3 3 3 0 3 0
97 94 97 94 94 90 87 84 74 74 71 71 71 65 58 52 52 52 52 39 32 29 26 19 19 16 19 19 26 23 26 26 23 16 3 3 3 3 3 3 0 0 0
90 87 87 90 90 84 87 84 77 71 68 68 71 65 58 55 52 48 52 35 29 23 23 23 19 16 19 19 26 26 23 13 16 10 3 6 3 3 3 3 0 3 0
94 87 87 87 87 84 81 81 74 77 74 65 65 68 58 45 45 45 39 39 32 23 23 23 16 13 13 19 19 23 13 13 10 6 6 3 3 3 3 3 3 0 0
84 81 84 81 77 84 81 74 77 71 68 71 71 61 55 48 45 45 39 39 35 26 26 23 23 16 10 10 6 16 13 16 6 6 6 3 3 3 3 6 0 0 3
84 84 81 77 81 77 81 74 74 68 68 65 65 55 48 39 29 16 29 29 35 29 23 23 23 13 3 3 3 0 3 13 10 10 6 3 3 3 3 3 3 0 0
84 84 77 74 77 77 71 74 74 74 74 71 58 52 52 32 19 3 3 29 29 32 26 23 19 16 16 16 3 0 0 0 0 13 10 10 10 6 3 3 3 3 3
77 74 71 71 71 68 71 71 74 74 74 68 55 52 52 35 16 3 3 10 26 35 32 23 19 19 16 19 16 13 10 6 3 0 6 10 10 10 10 6 3 6 6
61 68 65 65 65 61 58 61 61 68 65 55 52 52 52 39 16 0 0 13 23 26 26 19 23 19 19 3 13 19 16 13 3 0 0 0 0 0 3 6 3 3 0
58 61 65 65 61 55 55 61 61 58 55 42 39 32 35 39 13 3 0 16 23 23 26 23 16 13 13 0 13 16 16 19 10 6 0 0 0 0 0 0 0 0 0
58 58 61 65 58 55 55 55 58 45 45 45 45 42 26 23 6 3 0 10 19 23 23 19 19 0 0 0 0 13 13 13 13 16 10 6 6 6 3 3 0 3 3
52 52 55 52 52 52 52 45 39 42 42 42 45 42 29 23 13 6 3 0 6 13 23 23 19 0 0 0 0 0 0 0 3 6 6 6 6 6 6 3 3 3 10
48 48 48 45 45 39 45 42 39 32 32 32 35 35 32 29 16 6 3 0 0 6 13 3 3 0 0 0 0 0 0 0 3 3 6 10 6 6 10 6 6 6 6
42 48 48 48 39 39 45 39 32 29 26 29 32 35 29 26 26 13 6 10 3 0 0 0 0 0 0 0 0 0 0 0 0 0 10 10 6 6 10 6 6 10 6
39 42 32 32 35 45 39 42 32 32 29 32 32 32 32 29 23 10 13 10 6 6 3 3 3 6 6 3 3 6 10 3 0 0 3 3 3 10 6 10 10 6 3
39 39 29 29 29 35 35 29 13 13 10 3 13 19 19 10 3 3 0 0 0 0 0 3 0 0 3 0 6 6 10 6 6 3 3 3 3 3 3 6 3 6 6
35 29 23 23 26 26 26 26 26 6 0 0 0 0 0 3 0 0 0 0 0 0 0 3 3 0 0 0 3 3 3 3 13 10 3 3 6 6 6 6 6 3 0
32 23 23 26 19 23 23 23 19 23 26 16 0 0 0 0 0 0 0 0 0 0 0 3 10 10 6 3 3 3 3 3 6 13 10 6 6 10 6 6 6 6 3
26 19 23 23 16 16 19 16 23 19 26 29 32 10 0 0 0 0 0 3 6 3 3 6 6 6 3 0 3 3 3 3 3 6 10 10 10 10 6 3 3 0 0
19 10 13 16 16 16 16 16 16 19 23 29 26 29 6 6 6 6 3 6 6 10 10 3 3 3 3 3 6 3 3 3 3 3 3 6 6 6 6 6 3 3 6
13 10 3 13 16 16 13 13 13 16 23 26 19 19 6 6 6 6 6 6 6 3 3 6 3 3 6 3 6 3 6 6 6 6 6 6 6 6 6 6 6 6 6
10 6 6 6 6 6 10 13 13 13 10 10 19 13 3 3 6 6 6 3 3 3 3 3 3 3 6 3 3 3 3 6 6 6 6 6 6 6 6 6 6 6 6
6 6 10 10 10 3 6 10 6 3 3 10 10 13 3 10 13 10 10 6 6 6 6 6 3 3 3 3 3 3 3 3 6 6 6 6 6 6 6 6 6 6 6
10 10 10 10 10 6 6 3 3 3 3 3 6 10 16 13 10 6 6 3 3 3 6 6 3 3 3 3 3 0 0 0 0 3 6 6 6 6 6 6 6 3 0
6 6 10 6 6 3 3 3 3 3 3 3 6 10 16 10 10 10 6 3 3 3 3 3 3 3 3 3 3 0 0 0 0 0 0 3 3 6 3 3 3 0 0
3 0 3 3 3 3 3 3 3 3 3 3 6 13 16 13 13 10 10 3 3 3 3 3 3 3 3 3 3 0 0 0 0 0 0 0 0 0 3 3 3 0 0